Location: Unspecified
(45.0173°N, 35.2345°E)
Time: 17:01:56
(UTC+02:00)

ISS - Pass Details

Date: 26 January 2026
Orbit: 414 x 429 km, 51.6° (Epoch: 9 February)

Event Time Altitude Azimuth Distance (km) Brightness Sun altitude
Rises 17:24:46 0° 299° (WNW) 2,364 0.8 -8.5°
Reaches altitude 10° 17:26:56 10° 307° (NW) 1,501 -0.4 -8.8°
Enters shadow 17:32:49 14° 87° (E) 1,305 -1.9 -9.8°
Exits shadow 18:06:35 -67° 116° (ESE) 12,171 3.6 -15.6°
